EHI
0 0 0 0 0 0 0 0 0 0 0 0 0 0 0 0 0 0 0 0 0 0 0 0 0 0 0 0 0 0 0 0 0 0 0 0 0 0 0 0 0 0 0
0 0 0 0 0 0 0 0 0 0 0 0 0 0 0 0 0 0 0 0 0 0 0 0 0 0 0 0 0 0 0 0 0 0 0 0 0 0 0 0 0 0 0
0 0 0 0 0 0 0 0 0 0 0 0 0 0 0 0 0 0 0 0 0 0 0 0 0 0 0 0 0 0 0 0 0 0 0 0 0 0 0 0 0 0 0
0 1 2 2 1 0 0 0 0 0 0 0 0 0 0 0 0 0 0 0 0 0 0 0 0 0 0 0 0 0 0 0 0 0 0 0 0 0 0 0 0 0 0
0 5 12 11 3 0 0 0 0 0 0 0 0 0 0 0 0 0 0 0 0 0 0 0 0 0 0 0 0 0 0 0 0 0 0 0 0 0 0 0 0 0 0
2 11 25 22 7 0 0 0 0 0 0 0 0 0 0 0 0 0 0 0 0 0 0 0 0 0 0 0 0 0 0 0 0 0 0 0 0 0 0 0 0 0 0
4 16 31 26 9 0 0 0 0 0 0 0 0 0 0 0 0 0 0 0 0 0 0 0 0 0 0 0 0 0 0 0 0 0 0 0 1 0 0 0 0 0 0
3 13 25 19 6 1 0 0 0 0 0 0 0 0 0 0 0 0 0 0 0 0 0 0 0 0 0 0 0 0 0 0 0 0 0 2 4 2 0 0 0 0 0
1 5 10 7 2 0 0 0 0 0 0 0 0 0 0 0 0 0 0 1 1 1 0 0 0 1 1 0 0 0 0 0 0 0 1 8 13 6 0 0 0 0 0
0 0 0 0 0 0 5 9 6 0 0 0 0 0 0 0 0 1 1 4 5 3 1 0 0 1 1 0 0 0 0 0 0 0 6 23 28 12 0 0 0 0 0
0 0 0 0 0 0 11 22 14 2 0 0 0 0 0 0 0 0 2 6 7 4 1 0 0 1 1 0 0 0 0 0 0 0 13 37 38 15 1 0 0 0 0
0 0 0 0 0 0 9 18 14 5 2 1 0 0 0 0 0 0 2 4 4 2 1 0 0 0 0 0 0 0 0 0 0 0 15 40 38 14 1 0 0 0 0
0 0 0 0 0 0 2 5 6 5 4 2 0 0 0 0 0 0 0 1 0 0 0 0 0 0 0 0 0 0 0 1 1 0 11 30 29 11 1 0 0 0 0
0 0 0 0 0 0 0 0 1 2 2 1 0 0 0 0 0 0 0 0 0 0 0 0 0 0 0 0 0 0 5 12 11 5 6 14 17 10 4 1 0 0 0
0 0 0 0 0 0 0 0 0 0 0 0 0 0 0 0 0 0 0 0 0 0 0 0 0 0 0 0 0 6 24 43 40 21 7 3 6 9 7 3 2 1 1
0 0 0 0 0 0 0 0 0 0 0 0 0 0 0 0 0 0 0 0 0 0 0 0 0 0 0 0 3 18 47 66 60 37 14 2 2 5 6 5 5 5 3
0 0 0 0 0 0 0 0 0 0 0 0 0 0 0 0 0 0 0 0 0 0 0 0 0 0 0 0 4 21 42 49 43 33 18 6 1 1 2 6 9 7 3
0 0 0 0 0 0 0 0 0 0 0 0 0 0 0 0 0 0 0 0 0 0 0 0 0 0 0 0 2 9 14 14 13 13 11 6 2 0 1 4 8 6 2
0 0 0 0 0 0 0 0 0 0 0 0 0 0 0 0 0 0 0 0 0 0 0 0 0 0 0 0 0 0 0 0 0 1 3 3 2 1 0 1 3 2 1
0 0 0 0 0 0 0 0 0 0 0 0 0 0 0 0 0 0 0 0 0 0 0 0 0 0 0 0 0 0 0 0 0 0 0 0 1 1 0 0 0 0 1
0 0 0 0 0 0 0 0 0 0 0 0 0 0 0 0 0 0 0 0 0 0 0 0 0 0 0 0 0 0 0 0 0 0 0 0 0 0 0 0 0 0 0
0 0 0 0 0 0 0 0 0 0 0 0 0 0 0 0 0 0 0 0 0 0 0 0 0 0 0 0 0 0 0 0 0 0 0 1 0 0 0 0 0 0 0
0 0 0 0 0 0 0 0 0 0 0 0 0 0 0 0 0 0 0 0 0 0 0 0 0 0 0 0 0 0 0 0 0 0 0 0 0 0 0 0 0 0 0
0 0 0 0 0 0 0 0 0 0 0 0 0 0 0 0 0 0 0 0 0 0 0 0 0 0 0 0 0 0 0 0 0 0 0 0 0 0 0 0 0 0 0
0 0 0 0 0 0 0 0 0 0 0 0 0 0 0 0 0 0 0 0 0 0 0 0 0 0 0 0 0 0 0 0 0 0 0 0 0 0 0 0 0 0 0
0 0 0 0 0 0 0 0 0 0 0 0 0 0 0 0 0 0 0 0 0 0 0 0 0 0 0 0 0 0 0 0 0 0 0 0 0 0 0 0 0 0 0
Wind_Speed
6 9 14 11 10 9 8 7 6 6 5 4 3 2 2 2 1 2 2 2 3 2 2 2 2 1 1 0 1 2 2 3 5 6 6 6 6 6 5 5 4 3 6
8 11 13 11 10 9 8 7 6 5 5 3 2 1 0 0 1 2 3 4 5 5 4 4 3 3 2 2 1 2 3 3 3 3 2 3 6 6 6 5 6 5 6
9 12 10 10 9 9 8 8 7 6 5 5 3 2 1 1 1 2 3 4 6 6 6 5 4 4 4 3 2 3 4 4 3 1 3 3 5 7 7 6 5 6 6
8 11 12 12 10 9 8 8 7 7 6 4 3 2 1 1 1 3 4 3 4 5 5 4 4 4 4 3 4 5 6 6 4 4 4 4 5 9 8 6 6 7 7
7 8 12 15 11 9 9 9 8 7 6 5 4 4 3 2 2 3 2 0 1 1 2 2 2 3 3 3 5 6 7 6 6 5 6 1 6 10 8 6 7 7 7
8 11 14 14 12 11 10 9 9 8 7 6 6 4 4 3 2 2 1 3 3 2 1 1 2 2 3 4 5 7 7 6 5 4 6 1 6 8 9 7 7 6 6
3 12 14 13 12 11 10 9 9 8 7 8 6 4 5 5 4 2 0 2 2 2 1 1 2 3 4 4 6 7 6 6 5 4 5 1 7 9 8 7 5 4 4
4 9 13 13 12 10 9 9 8 8 8 8 7 6 5 6 6 5 4 4 4 3 2 2 3 4 4 5 5 5 5 6 6 6 5 3 11 9 7 6 5 3 1
5 3 7 10 10 10 9 9 8 7 7 7 7 7 6 6 6 7 5 4 5 4 3 1 2 4 4 4 4 5 5 6 4 4 4 5 11 10 8 7 5 2 2
3 2 2 4 9 11 10 12 10 7 6 6 7 7 4 3 4 6 5 5 4 3 3 2 1 3 3 4 4 5 6 5 5 5 2 6 11 10 9 8 6 3 3
5 4 3 5 4 1 5 11 10 8 7 6 6 7 5 4 5 6 8 7 6 4 3 4 4 2 2 5 7 7 6 3 5 5 2 9 11 10 10 10 7 5 5
4 6 5 5 5 5 2 5 5 6 6 6 6 8 6 6 6 5 7 8 7 6 7 9 9 7 5 5 8 10 4 6 5 4 4 12 11 11 11 10 8 6 6
7 8 6 5 4 5 3 2 1 1 3 6 8 7 6 5 3 3 4 5 6 7 5 7 8 5 6 6 5 6 7 7 4 3 6 12 11 11 11 10 9 7 6
8 7 6 5 4 4 4 3 3 2 1 1 2 1 1 1 1 1 2 2 3 3 4 4 3 6 7 7 7 6 7 4 4 3 6 12 12 12 12 11 10 9 7
5 6 5 4 5 4 3 2 2 3 1 2 1 2 2 1 2 2 2 1 1 1 1 2 4 5 5 5 5 6 6 5 5 5 5 12 12 11 12 12 11 10 9
8 7 6 7 7 5 3 1 2 2 1 2 1 2 3 2 2 1 1 1 1 2 2 3 5 5 5 5 6 5 4 4 3 4 5 8 12 11 12 13 13 12 11
11 10 7 6 6 8 6 4 3 3 3 2 2 2 3 3 3 2 2 2 3 3 3 4 5 4 3 2 3 4 4 4 4 5 6 6 6 10 11 13 13 13 12
16 15 12 8 6 7 7 5 4 4 4 3 2 2 4 4 2 2 3 4 4 3 3 4 4 4 4 3 3 2 4 4 6 6 6 6 6 7 9 12 11 12 12
19 19 17 14 10 7 7 6 5 5 4 3 3 2 3 4 4 3 3 4 4 4 3 4 4 3 3 3 4 4 4 5 6 7 6 7 7 7 7 10 12 10 10
18 18 18 17 15 11 7 5 5 4 4 4 3 3 3 3 5 4 3 4 3 2 3 3 4 3 2 2 3 3 3 4 4 5 5 5 6 7 7 7 7 7 10
17 19 19 18 17 14 9 6 5 5 4 4 4 4 4 4 5 3 2 3 2 1 3 4 2 3 2 1 1 2 3 4 4 4 3 3 5 6 5 5 5 4 5
12 13 15 16 16 15 11 10 7 6 4 5 3 2 3 5 5 3 3 2 2 1 2 3 1 1 1 1 1 0 2 3 3 3 2 2 3 3 3 3 3 3 4
8 8 10 11 13 15 15 11 10 7 5 4 4 3 4 5 5 3 3 3 2 0 1 3 1 1 2 2 2 1 0 2 2 1 0 1 1 2 3 3 3 3 3
7 7 8 9 9 11 13 14 17 13 9 7 5 5 6 6 5 3 3 3 2 1 2 3 1 1 2 1 1 1 1 1 1 1 1 2 3 4 4 3 2 2 3
8 8 8 9 8 9 11 13 15 15 13 10 8 7 6 6 5 4 2 2 2 1 2 2 2 2 1 1 1 1 2 2 2 2 0 0 2 2 3 3 2 1 2
9 10 10 10 8 7 8 9 12 16 17 17 13 10 6 3 3 4 3 2 1 1 1 2 2 1 0 0 1 1 1 1 0 1 1 1 1 1 2 2 1 1 1
Wind_Direction
125 128 156 166 171 173 180 184 181 167 150 129 122 129 125 125 148 163 174 188 198 194 192 200 195 216 267 314 72 100 117 107 88 80 74 83 91 93 90 77 28 78 88
122 128 157 167 175 179 185 190 187 174 161 153 155 147 98 194 240 241 224 223 218 214 210 218 227 228 239 249 241 189 166 133 109 109 127 131 113 102 87 65 53 56 64
116 127 154 168 177 183 187 190 187 183 179 180 181 179 40 1 291 291 263 241 231 225 220 224 241 238 238 245 242 219 191 158 151 206 247 213 142 116 96 75 61 55 51
114 137 157 165 176 184 189 191 191 192 198 198 200 210 195 35 343 316 301 254 237 227 227 237 258 260 252 239 234 216 196 177 184 236 256 229 152 124 110 96 76 60 47
131 126 141 154 169 182 192 195 196 200 197 207 223 241 227 242 311 309 324 170 178 228 229 245 270 277 268 259 242 225 207 192 196 242 270 259 115 127 122 109 94 75 64
147 121 133 152 167 182 192 197 200 204 201 214 218 233 234 233 261 341 47 103 102 100 128 252 286 275 268 257 242 234 223 212 198 244 272 98 111 130 129 116 102 90 78
84 119 138 154 170 184 194 200 205 208 211 223 212 222 227 222 240 253 217 141 128 128 162 253 284 279 273 265 248 240 234 228 224 264 277 148 122 132 134 133 124 109 89
70 115 140 158 172 187 199 208 213 214 218 229 217 217 220 217 227 229 231 211 190 176 188 253 277 279 281 276 260 243 232 233 225 231 245 124 129 131 138 148 152 151 151
54 77 143 160 174 186 199 210 217 221 226 230 218 222 237 236 231 232 219 221 216 211 198 240 310 285 283 279 262 237 223 229 265 270 253 131 138 143 156 165 164 174 202
67 47 11 187 177 178 190 201 198 208 227 228 219 222 224 228 230 229 207 208 193 185 188 190 282 310 288 277 255 231 224 219 238 262 250 132 142 157 174 177 170 168 174
176 133 70 346 5 183 188 175 184 192 211 222 216 211 197 227 226 211 214 176 156 161 204 224 221 234 285 261 237 220 210 210 224 239 203 139 150 164 180 180 167 156 154
113 73 47 17 2 341 338 140 179 186 188 204 216 195 200 219 229 208 153 159 181 209 228 239 239 236 234 241 225 209 202 212 227 215 151 151 155 169 182 179 172 165 165
68 59 36 21 3 353 346 33 341 206 176 202 226 197 194 207 207 168 159 180 201 215 226 237 232 231 227 228 225 193 206 208 202 190 157 158 162 178 188 185 181 179 177
67 68 36 6 20 13 5 61 336 305 236 257 274 258 210 203 220 220 216 213 203 201 212 221 211 226 224 226 225 210 207 187 187 184 161 164 169 184 193 192 190 188 184
44 77 62 9 11 24 18 68 279 290 287 259 239 307 292 260 238 232 222 207 219 259 273 244 246 246 242 245 245 227 208 185 190 187 160 174 175 186 197 197 196 196 192
16 35 41 24 7 2 339 319 256 280 254 282 284 250 259 249 258 241 238 217 240 247 255 265 263 255 235 224 236 226 181 169 202 200 168 180 182 184 198 201 202 201 196
5 8 13 17 3 340 337 348 338 315 299 297 293 292 287 243 225 243 241 234 232 232 250 262 271 275 280 269 239 189 165 190 214 215 186 167 177 190 199 204 204 201 200
8 3 358 356 352 338 333 334 330 319 326 330 311 310 306 297 245 223 230 233 228 220 231 244 253 265 268 276 267 216 191 202 228 224 195 174 170 183 200 207 207 205 204
12 6 358 351 345 333 324 320 304 297 316 314 299 288 288 298 287 254 238 238 229 217 231 252 255 247 251 256 252 240 213 205 222 229 209 191 184 179 181 204 208 211 214
13 8 2 354 347 339 329 322 317 312 302 288 285 281 281 293 285 264 262 255 247 236 246 260 275 279 257 263 268 266 234 218 222 229 231 215 197 188 178 179 192 212 218
13 7 2 356 350 345 338 329 316 302 289 271 251 255 269 270 277 268 274 286 277 272 259 248 254 288 284 350 312 290 276 238 223 220 228 240 218 201 187 175 170 177 198
15 5 358 355 348 343 336 326 307 293 289 291 284 280 296 286 278 268 253 259 248 232 321 297 259 253 241 190 217 309 307 297 253 208 209 236 217 176 170 163 163 149 127
8 359 350 348 349 345 338 331 327 313 297 287 280 259 256 263 261 261 281 288 297 125 298 293 294 261 260 236 188 150 198 287 322 349 63 42 115 122 119 111 103 107 109
351 341 337 341 346 347 345 344 338 326 310 289 266 233 216 229 236 227 254 290 307 309 294 285 255 59 63 358 359 86 101 76 50 22 29 80 88 88 94 86 81 117 132
336 333 337 339 342 346 349 346 338 329 321 313 307 289 237 207 209 202 203 276 292 300 304 329 21 45 57 19 340 31 43 40 35 84 133 83 64 70 93 95 86 55 128
337 336 334 328 327 335 340 338 333 327 321 315 307 298 275 231 195 180 179 222 256 354 15 15 5 349 247 334 40 57 101 126 209 146 154 180 158 177 118 110 139 227 159